Theta_e
305 305 305 305 305 305 305 305 305 305 305 306 306 307 307 307 307 307 307 307 306 305 305 304 303 303 302 300 299 298 298 297 296 296 295 295 295 295 295 295 295 296
305 305 304 304 304 304 304 305 305 305 305 305 305 305 306 306 306 306 306 306 306 306 306 305 304 303 303 302 301 299 298 298 297 296 295 295 295 295 295 295 295 295
305 304 304 304 304 304 304 304 304 304 305 305 305 305 305 305 305 305 305 305 305 305 305 305 305 304 303 302 301 300 299 299 298 297 296 295 295 295 295 295 295 295
304 304 304 304 304 303 303 303 304 304 304 304 305 305 305 305 305 304 304 304 304 304 304 304 304 304 303 303 302 301 300 299 298 297 297 296 295 295 295 294 294 294
303 303 303 303 303 303 303 303 304 304 304 304 304 304 304 304 305 305 304 304 304 303 303 303 303 303 303 302 302 301 300 299 298 298 297 296 295 295 294 294 294 294
302 303 303 303 303 303 303 303 304 304 304 304 303 303 303 303 304 304 304 304 304 304 303 303 303 303 302 302 301 301 300 300 299 298 297 297 296 295 294 294 294 294
302 303 303 303 302 302 302 303 303 303 303 303 303 302 302 302 303 303 303 303 303 303 303 303 303 303 302 302 301 301 301 300 299 299 298 298 297 295 294 294 294 294
303 303 303 303 302 301 301 302 302 302 302 302 302 301 301 302 301 301 302 302 302 302 302 302 303 302 302 302 302 301 301 300 300 300 299 298 297 296 295 294 294 293
303 304 304 303 303 302 302 302 301 301 301 300 300 300 300 300 300 300 300 300 300 301 301 301 301 301 302 302 302 301 301 301 300 300 300 299 298 297 296 294 293 293
303 303 304 304 304 304 303 303 302 302 301 300 300 300 300 299 299 299 299 299 299 299 299 300 300 300 301 301 301 301 301 301 300 300 299 299 298 298 297 296 294 294
302 302 303 303 303 303 304 304 304 303 301 300 299 299 299 299 299 298 298 298 298 299 299 299 299 299 300 300 300 300 300 300 300 300 299 299 298 298 297 297 296 295
301 301 301 301 302 302 302 303 303 303 303 301 299 299 298 298 297 298 298 298 298 298 298 298 298 298 299 299 299 299 300 300 300 299 299 298 298 298 298 297 296 295
297 299 299 300 301 301 301 301 301 301 301 301 300 299 298 297 296 297 297 298 298 297 297 297 297 297 298 298 298 298 298 299 299 299 299 298 298 297 297 297 297 296
294 295 296 298 299 299 300 300 300 300 300 300 300 299 297 296 296 296 296 297 297 296 296 296 296 297 297 297 297 297 297 297 298 298 298 298 298 297 297 297 296 296
292 293 293 294 296 298 299 299 299 300 299 299 298 298 298 296 295 295 295 295 295 295 295 295 295 296 296 296 296 296 296 296 296 297 297 297 297 297 297 296 296 296
292 292 292 293 293 295 296 297 298 299 299 298 298 297 297 296 295 295 294 294 294 294 294 294 295 295 296 296 296 296 295 295 296 296 296 297 297 296 296 296 296 295
290 291 292 292 292 293 293 295 296 297 297 298 298 297 296 295 295 294 293 293 292 293 293 293 294 294 294 295 295 295 294 294 295 295 295 295 296 296 296 296 296 295
289 289 290 290 291 292 292 292 293 294 296 297 297 297 297 296 295 294 293 292 292 292 292 292 293 293 293 294 294 294 294 294 293 294 294 294 295 295 295 295 295 295
288 288 288 289 289 290 291 291 291 292 293 294 295 296 297 297 296 294 293 292 291 291 291 291 292 292 292 292 292 293 293 293 293 293 293 293 294 294 294 295 295 294
287 287 287 287 287 288 288 289 290 291 291 292 293 294 295 296 297 296 294 293 291 291 291 291 291 291 291 291 291 291 292 291 292 292 292 292 293 293 293 294 294 294
286 286 286 286 286 287 287 287 288 289 290 291 291 292 293 294 295 296 296 295 292 290 290 290 290 290 290 290 290 290 290 290 291 291 291 292 292 292 292 292 293 293
285 285 285 285 285 286 286 286 286 287 288 289 290 291 291 292 293 294 295 296 295 293 290 290 290 289 289 290 290 290 289 289 289 290 290 291 291 291 291 291 292 292
285 285 285 285 285 285 285 285 285 285 286 286 287 289 290 291 291 292 293 295 296 295 293 291 290 289 289 289 289 289 289 289 288 289 289 290 290 290 290 290 290 290
285 285 285 285 285 285 285 285 285 285 285 285 286 286 287 289 290 291 291 292 294 295 295 293 291 289 288 288 288 288 288 288 288 288 288 289 289 289 289 289 289 289
285 285 285 285 285 285 285 285 285 285 285 285 285 285 286 287 288 289 291 291 292 293 294 295 294 291 288 287 287 287 287 287 287 287 288 288 288 288 288 288 288 288
284 284 284 284 284 284 284 285 285 285 285 285 285 285 285 285 286 287 289 290 291 292 293 294 295 293 291 288 287 287 287 287 287 287 287 287 287 287 288 288 288 287
Wind_Speed
27 29 31 33 35 35 36 37 38 38 38 37 36 35 35 36 37 40 43 44 46 47 48 49 50 51 51 51 50 49 48 47 46 46 46 46 45 44 43 42 41 40
24 27 29 31 33 35 36 36 37 37 38 37 37 36 35 35 36 38 39 41 43 45 46 47 48 49 50 51 51 51 50 49 48 48 47 47 47 46 45 43 43 41
22 25 27 29 31 33 34 36 36 37 37 37 37 36 36 36 37 37 38 40 42 43 45 46 47 47 49 50 51 51 51 50 50 49 49 48 47 47 46 45 44 43
21 22 25 27 29 31 33 34 36 36 37 37 37 36 36 37 38 38 39 40 41 42 43 45 46 47 48 49 50 51 52 51 51 50 49 49 49 48 48 47 46 45
17 19 21 24 27 29 31 33 34 35 37 38 37 37 38 38 39 39 39 40 41 41 42 44 45 46 47 49 50 51 52 52 52 51 51 51 50 50 49 49 48 48
12 15 17 20 24 27 30 31 32 33 35 36 37 38 39 40 41 41 41 41 41 41 42 43 44 45 46 48 50 51 52 52 52 52 52 52 51 51 51 51 50 50
12 12 14 17 20 23 26 29 30 32 33 34 36 38 39 40 42 43 43 43 43 43 43 43 44 44 45 47 49 51 51 52 53 53 53 53 52 52 53 52 52 52
18 15 15 16 18 21 24 26 28 30 32 34 36 37 38 39 41 42 43 44 45 45 45 45 45 45 45 46 48 49 51 52 53 54 54 54 54 54 54 54 54 53
22 20 19 19 20 20 22 23 25 27 28 31 34 35 36 37 39 40 42 43 45 46 47 47 47 46 46 46 47 49 50 52 54 54 55 55 56 56 55 55 55 55
23 22 21 21 22 22 22 22 23 23 24 26 28 30 33 34 36 38 40 42 44 46 47 48 48 48 47 47 48 49 50 52 54 55 56 56 57 56 56 56 56 56
25 25 24 23 22 23 23 24 24 23 23 23 25 27 29 31 33 36 38 41 42 44 45 47 49 49 49 49 49 50 50 52 53 55 56 57 57 56 56 56 56 57
26 26 26 26 25 24 24 24 25 26 26 25 25 26 28 31 33 34 36 39 41 42 43 46 48 49 50 50 51 51 51 52 53 55 56 57 57 57 57 56 57 57
27 26 27 27 27 27 27 25 25 26 27 27 27 27 28 30 32 34 36 38 39 41 42 44 47 48 50 51 52 52 52 52 54 56 57 57 57 57 57 57 57 57
28 27 26 26 26 27 27 27 27 26 27 28 28 28 28 28 30 32 34 37 38 40 41 43 46 48 50 51 52 53 53 53 54 56 57 57 57 57 58 57 57 57
29 28 27 26 26 25 26 27 27 27 27 27 28 29 30 29 29 30 33 36 38 40 41 43 46 48 49 51 52 53 54 54 54 55 56 57 58 58 58 58 58 58
30 29 28 28 27 26 26 26 27 27 28 27 27 27 29 30 30 30 31 34 37 40 42 44 46 48 49 50 52 53 53 54 54 55 56 57 58 59 59 59 59 59
31 31 30 29 28 27 27 27 27 27 27 28 28 27 27 28 29 30 30 32 35 38 41 44 46 48 49 50 51 52 53 54 54 55 55 57 59 60 60 60 59 59
32 32 32 31 30 29 28 28 28 28 28 28 28 28 28 28 28 29 29 30 32 36 40 43 45 47 48 49 50 51 52 53 54 55 55 56 58 59 60 60 59 59
33 33 33 32 32 31 30 29 29 28 28 29 28 28 28 29 29 29 29 28 29 33 37 40 43 44 46 48 49 50 51 52 53 54 56 56 57 58 59 59 59 59
35 35 35 35 34 33 33 32 31 30 29 29 29 29 29 29 29 29 29 28 28 30 33 37 40 42 44 46 48 49 50 51 51 53 55 56 56 57 58 58 58 58
36 37 37 37 37 36 36 35 34 33 32 31 31 30 30 30 30 31 30 29 28 28 30 34 36 38 41 44 46 48 48 49 50 51 53 55 57 57 57 57 57 57
36 37 38 39 39 39 39 38 37 36 35 34 33 33 32 31 32 32 32 32 30 28 29 32 33 35 38 41 43 45 46 47 49 50 52 54 56 56 57 57 56 57
37 38 39 40 40 40 40 40 40 40 39 37 36 35 35 34 34 34 34 33 33 31 30 31 31 31 35 39 41 42 43 45 47 49 51 53 54 55 56 56 56 56
37 39 40 41 42 42 42 42 42 42 42 41 39 38 37 35 35 36 35 35 35 33 31 31 31 30 31 35 39 40 42 43 45 47 49 51 52 54 55 55 55 56
37 38 40 41 42 43 44 44 44 44 44 43 43 42 41 38 37 37 37 36 36 35 34 32 31 30 29 32 35 38 40 42 42 45 48 50 51 52 53 54 54 55
37 38 39 40 42 43 45 45 46 46 46 46 46 45 44 43 41 39 39 37 36 36 35 34 32 31 29 30 32 35 38 40 42 44 47 49 50 51 52 52 53 54
Wind_Direction
276 272 269 267 267 267 267 266 265 264 264 264 263 262 260 257 253 250 248 246 246 245 245 243 242 241 240 239 238 237 237 237 237 237 237 237 238 238 239 240 241 242
282 277 273 269 268 268 268 269 270 269 267 266 266 264 263 260 257 255 253 251 249 248 247 246 244 243 242 240 239 238 237 237 236 236 236 236 237 238 239 240 240 241
284 280 277 273 271 269 269 270 271 271 270 268 267 266 264 263 260 258 255 254 252 251 249 248 247 245 243 242 241 240 239 238 238 237 237 237 237 238 239 239 239 240
289 285 282 278 275 271 269 269 270 271 270 269 269 270 269 266 264 261 259 256 254 253 251 250 249 247 245 243 242 241 240 240 239 238 238 238 237 238 238 238 238 239
299 297 293 289 283 278 273 270 270 271 270 270 270 270 269 268 267 265 263 261 258 256 254 252 251 250 248 246 244 242 241 240 239 238 238 238 238 238 238 237 238 238
315 307 302 296 290 284 279 275 274 272 271 271 270 270 270 269 269 268 266 264 262 260 258 256 254 252 250 248 246 244 243 241 240 239 238 238 238 238 237 237 238 237
331 314 301 295 291 287 284 282 280 278 277 275 272 271 271 271 271 270 269 267 265 263 260 258 256 254 252 250 248 247 245 243 242 240 239 239 238 237 237 237 237 237
339 326 310 299 295 293 291 291 289 287 286 283 279 276 275 274 273 272 271 270 267 265 262 259 257 255 254 252 250 249 247 244 242 241 239 238 237 236 236 236 236 236
343 335 324 314 306 300 296 294 292 290 288 286 284 283 280 278 276 274 273 271 269 266 263 260 258 256 255 253 252 251 249 247 245 242 240 238 237 236 236 235 235 235
346 340 333 324 316 307 300 295 290 287 285 285 285 285 284 283 281 278 275 272 269 267 264 262 260 258 256 255 253 252 251 250 248 246 243 240 239 238 237 236 236 236
349 345 340 333 325 315 307 301 295 290 287 286 286 286 286 285 283 280 276 274 271 269 267 265 263 261 259 257 255 253 251 251 250 249 247 244 241 240 238 238 237 237
351 349 346 341 334 327 318 309 301 295 291 289 288 287 287 286 284 281 279 277 275 272 270 267 264 262 261 259 257 254 252 251 250 250 248 246 244 242 240 239 239 239
353 352 350 346 342 337 331 324 315 305 296 291 288 286 285 286 286 284 282 281 280 276 272 269 265 263 262 260 258 256 253 251 250 250 249 247 245 243 241 240 240 240
353 351 348 346 344 341 338 334 329 321 309 298 290 285 283 284 285 285 284 282 280 278 275 271 267 264 263 261 259 256 254 252 250 249 250 249 246 244 242 241 240 239
349 349 348 345 342 340 340 339 336 332 325 313 301 291 286 285 284 284 283 282 280 278 275 271 268 266 264 262 260 258 256 254 251 250 249 249 248 246 243 241 240 239
343 343 344 344 342 340 339 338 338 337 336 331 321 306 295 290 287 285 284 284 283 280 277 272 269 267 265 263 262 260 258 256 254 251 249 248 248 247 245 243 241 239
340 339 339 340 340 339 338 336 335 334 335 336 334 326 313 299 291 287 286 287 285 283 279 275 272 270 268 266 264 262 259 257 255 253 250 249 248 248 247 245 243 241
338 337 338 338 337 336 335 334 333 331 331 331 332 333 329 316 303 293 288 288 288 285 281 277 276 274 271 268 266 264 261 259 256 254 252 249 249 248 248 247 245 243
335 335 335 336 336 335 333 332 331 329 329 329 327 328 330 328 320 308 296 290 287 286 283 281 279 276 273 270 267 264 262 259 256 254 252 250 250 249 248 248 247 245
334 334 333 333 334 334 332 331 329 327 326 326 324 324 324 325 326 321 312 301 291 287 285 283 281 278 274 271 268 265 262 259 256 254 252 252 251 250 249 248 248 247
332 333 333 332 332 331 330 330 328 326 324 323 321 321 320 319 320 321 320 313 302 292 287 284 283 280 276 273 269 266 262 259 256 254 252 251 251 249 248 248 248 248
328 329 329 330 330 330 329 328 327 325 324 323 320 318 317 317 316 315 316 316 311 301 290 285 283 282 279 274 270 267 263 258 255 253 251 250 250 249 249 248 248 247
323 324 324 325 326 326 326 326 325 324 324 323 320 317 315 314 313 312 310 311 312 308 300 291 286 283 281 276 271 267 263 258 254 252 251 251 250 250 249 248 248 247
319 320 320 320 321 321 322 322 321 321 321 321 319 316 314 312 310 308 307 307 307 308 306 299 291 286 282 278 274 268 263 259 255 253 253 252 251 250 249 247 247 246
315 317 317 318 318 318 318 318 317 317 317 317 316 315 313 310 307 305 303 303 303 304 305 302 297 290 283 278 275 269 264 259 255 252 253 252 251 249 248 246 245 245
310 311 313 314 315 316 316 315 314 314 313 312 312 312 311 309 306 303 301 299 299 299 299 300 299 294 286 279 274 270 266 261 255 252 252 251 250 248 247 247 246 245